Printer-friendly version

IAU Minor Planet Center

Minor Planet Center

MPEC 2006-S70 : 2006 SQ131

The following Minor Planet Electronic Circular may be linked-to from your own Web pages, but must not otherwise be redistributed electronically.


Read MPEC 2006-S69 Read MPEC 2006-S71


M.P.E.C. 2006-S70                                Issued 2006 Sept. 27, 13:38 UT

     The Minor Planet Electronic Circulars contain information on unusual
         minor planets and routine data on comets.  They are published
   on behalf of Commission 20 of the International Astronomical Union by the
          Minor Planet Center, Smithsonian Astrophysical Observatory,
                          Cambridge, MA 02138, U.S.A.

                  Supported in part by the Brinson Foundation
                  Supported in part by the TABASGO Foundation
             Prepared using the Tamkin Foundation Computer Network

                              MPC@CFA.HARVARD.EDU
          URL http://cfa-www.harvard.edu/iau/mpc.html  ISSN 1523-6714

                                  2006 SQ131

Observations:
     K06SD1Q* C2006 09 26.31273 01 22 11.59 +06 59 50.6          20.3 V ES070691
     K06SD1Q  C2006 09 26.33011 01 22 13.14 +06 58 49.4          20.5 V ES070691
     K06SD1Q  C2006 09 26.33427 01 22 13.47 +06 58 34.5          20.2 V ES070G96
     K06SD1Q  C2006 09 26.34177 01 22 14.16 +06 58 08.0          20.2 V ES070G96
     K06SD1Q  C2006 09 26.34755 01 22 14.70 +06 57 48.1          20.2 V ES070691
     K06SD1Q  C2006 09 26.34913 01 22 14.77 +06 57 42.2          20.1 V ES070G96
     K06SD1Q  C2006 09 26.35661 01 22 15.45 +06 57 15.8          20.1 V ES070G96
     K06SD1Q  C2006 09 26.37219 01 22 16.82 +06 56 20.9          20.0 V ES070G96
     K06SD1Q  C2006 09 26.37551 01 22 17.14 +06 56 09.2          20.1 V ES070G96
     K06SD1Q  C2006 09 26.37898 01 22 17.43 +06 55 57.1          20.4 V ES070G96
     K06SD1Q  C2006 09 26.38235 01 22 17.76 +06 55 45.0          20.1 V ES070G96
     K06SD1Q  C2006 09 26.94007 01 23 16.03 +06 22 54.9          20.2 R ES070473
     K06SD1Q  C2006 09 26.94569 01 23 16.57 +06 22 35.2          20.0 R ES070473
     K06SD1Q  C2006 09 26.94920 01 23 16.96 +06 22 22.3          19.7 R ES070473
     K06SD1Q  C2006 09 26.95271 01 23 17.34 +06 22 10.7          19.9 R ES070473
     K06SD1Q  C2006 09 26.95552 01 23 17.57 +06 22 00.3          20.5 R ES070473
     K06SD1Q  C2006 09 27.24125 01 23 47.25 +06 05 24.0          19.8 V ES070G96
     K06SD1Q  C2006 09 27.25054 01 23 48.08 +06 04 51.4          19.9 V ES070G96
     K06SD1Q  C2006 09 27.25515 01 23 48.48 +06 04 35.3          19.9 V ES070G96
     K06SD1Q  C2006 09 27.25710 01 23 48.65 +06 04 29.7          21.0 R ES070651
     K06SD1Q  C2006 09 27.25822 01 23 48.75 +06 04 25.5          21.3 R ES070651
     K06SD1Q  C2006 09 27.25933 01 23 48.85 +06 04 21.8          21.2 R ES070651
     K06SD1Q  C2006 09 27.27987 01 23 50.07 +06 03 05.3          20.6 R ES070734
     K06SD1Q  C2006 09 27.28280 01 23 50.25 +06 02 54.9          20.7 R ES070734
     K06SD1Q  C2006 09 27.28719 01 23 50.69 +06 02 40.4          20.5 R ES070734
     K06SD1Q  C2006 09 27.35820 01 23 57.42 +05 58 34.3          20.5 V ES070691
     K06SD1Q  C2006 09 27.37558 01 23 58.89 +05 57 33.3          20.4 V ES070691
     K06SD1Q  C2006 09 27.39304 01 24 00.38 +05 56 32.1          20.4 V ES070691

Observer details:
473 Remanzacco.  Observers G. Sostero, E. Guido.  0.45-m f/4.4 Newtonian
    reflector + CCD.
651 Grasslands Observatory, Tucson.  Observer J. E. McGaha.  0.62-m f/5.1
    Newtonian reflector + CCD.
691 Steward Observatory, Kitt Peak.  Observers J. V. Scotti, T. H. Bressi.
    0.9-m f/3 reflector + CCD.
734 Farpoint Observatory.  Observer D. Tibbets.  0.7-m reflector + CCD.
G96 Mt. Lemmon Survey.  Observers E. C. Beshore, R. A. Kowalski.  Measurers
    E. C. Beshore, E. J. Christensen, G. J. Garradd, A. R. Gibbs, A. D. Grauer,
    R. E. Hill, R. A. Kowalski, S. M. Larson, R. H. McNaught.  1.5-m reflector
    + CCD.

Orbital elements:
2006 SQ131                                               Earth MOID = 0.1966 AU
Epoch 2006 Sept. 22.0 TT = JDT 2454000.5                MPC
M   5.52276              (2000.0)            P               Q
n   0.43773171     Peri.  166.73484     +0.98918538     +0.14537010
a   1.7178980      Node   185.03006     -0.14645742     +0.97182566
e   0.3033513      Incl.   12.84285     -0.00790645     +0.18553280
P   2.25           H   22.6           G   0.15           U   8
Residuals in seconds of arc
060926 691  0.0   0.1+    060926 G96  0.2+  0.2-    060927 651  0.1-  0.3+
060926 691  0.0   0.0     060926 473  1.3-  0.1+    060927 651  0.0   0.5+
060926 G96  0.1-  0.0     060926 473  0.8-  0.1+    060927 734  0.5+  0.1+
060926 G96  0.3+  0.1-    060926 473  0.2+  0.5-    060927 734  0.7-  0.0
060926 691  0.2+  0.0     060926 473  1.2+  0.2+    060927 734  0.2+  0.9+
060926 G96  0.4-  0.0     060926 473  0.9+  0.3-    060927 691  0.1+  0.2-
060926 G96  0.1-  0.1-    060927 G96  0.0   0.1-    060927 691  0.1-  0.2-
060926 G96  0.3-  0.1-    060927 G96  0.1+  0.2-    060927 691  0.1-  0.0
060926 G96  0.1+  0.1-    060927 G96  0.0   0.2-
060926 G96  0.2-  0.0     060927 651  0.1-  0.6+

Ephemeris:
2006 SQ131               a,e,i = 1.72, 0.30, 13                  q = 1.1968
Date    TT    R. A. (2000) Decl.     Delta      r     Elong.  Phase     V
2006 09 22    01 14.21   +11 11.9    0.212    1.202   157.2    18.9    20.6
2006 10 02    01 31.11   +01 31.8    0.218    1.213   165.0    12.3    20.4
2006 10 12    01 42.80   -06 54.4    0.239    1.229   163.4    13.4    20.7
2006 10 22    01 50.51   -12 53.6    0.274    1.251   156.2    18.7    21.2
2006 11 01    01 56.23   -16 16.1    0.321    1.278   148.7    23.8    21.8

Timothy B. Spahr             (C) Copyright 2006 MPC           M.P.E.C. 2006-S70

Read MPEC 2006-S69 Read MPEC 2006-S71


Our Web policy. Index to the CBAT/MPC/ICQ pages.


Valid HTML 4.01!